Price, UT

4:24 AM MST on February 24, 2017 (GMT -0700)
Carbon County

Weather History for KPUC - November, 2011

Change the Weather History Date:

Tuesday, November 8, 2011

  Actual Average Record
Temperature  
Mean Temperature 34 °F -  
Max Temperature 44 °F 46 °F 68 °F (1973)
Min Temperature 25 °F 27 °F 15 °F (1993)
Degree Days  
Heating Degree Days 30    
Moisture  
Dew Point 14 °F    
Average Humidity 47    
Maximum Humidity 66    
Minimum Humidity 25    
Precipitation  
Precipitation 0.00 in - - ()
Sea Level Pressure  
Sea Level Pressure 30.28 in    
Wind  
Wind Speed 10 mph (NW)    
Max Wind Speed 15 mph    
Max Gust Speed 25 mph    
Visibility 10 miles    
Events      
Averages and records for this station are not official NWS values.
T = Trace of Precipitation, MM = Missing Value Source: NWS Daily Summary

Daily Weather History Graph

Daily Weather History Graph

Search for Another Location

Airport or City:

Trip Planner

Search our weather history database for the weather conditions in past years. The results will help you decide how hot, cold, wet, or windy it might be!

Date:

Astronomy

Nov. 08, 2011 Rise Set
Actual Time 6:59 AM MST 5:13 PM MST
Civil Twilight 6:30 AM MST 5:42 PM MST
Nautical Twilight 5:58 AM MST 6:14 PM MST
Astronomical Twilight 5:26 AM MST 6:45 PM MST
Moon 3:55 PM MST (11/8) 5:01 AM MST (11/8)
Length of Visible Light 11h 11m
Length of Day
10h 14m
Waxing Gibbous, 96% of the Moon is Illuminated
Nov 8
Waxing Gibbous
Nov 10
Full
Nov 18
Last Quarter
Nov 24
New
Dec 2
First Quarter

Hourly Weather History & Observations

Time (MST) Temp. Windchill Dew Point Humidity Pressure Visibility Wind Dir Wind Speed Gust Speed Precip Events Conditions
12:53 AM 30.9 °F 22.2 °F 19.0 °F 61% 30.14 in 10.0 mi NW 10.4 mph - N/A   Clear
1:53 AM 30.9 °F 22.2 °F 18.0 °F 59% 30.15 in 10.0 mi NW 10.4 mph - N/A   Clear
2:53 AM 30.9 °F 20.2 °F 17.1 °F 57% 30.15 in 10.0 mi NNW 15.0 mph 19.6 mph N/A   Clear
3:53 AM 30.9 °F 20.7 °F 17.1 °F 57% 30.15 in 10.0 mi NNW 13.8 mph - N/A   Clear
4:53 AM 30.9 °F 20.2 °F 15.1 °F 52% 30.18 in 10.0 mi NNW 15.0 mph 25.3 mph N/A   Clear
5:53 AM 30.0 °F 22.4 °F 14.0 °F 51% 30.22 in 10.0 mi NW 8.1 mph 17.3 mph N/A   Clear
6:53 AM 28.4 °F 19.7 °F 15.8 °F 59% 30.15 in 10.0 mi NNW 9.2 mph - N/A   Clear
7:53 AM 30.0 °F 21.1 °F 15.1 °F 54% 30.28 in 10.0 mi NW 10.4 mph - N/A   Clear
8:53 AM 33.1 °F 23.4 °F 15.1 °F 48% 30.29 in 10.0 mi NW 13.8 mph 20.7 mph N/A   Clear
9:53 AM 36.0 °F 28.5 °F 15.1 °F 43% 30.30 in 10.0 mi NW 10.4 mph - N/A   Clear
10:53 AM 37.9 °F 30.0 °F 12.9 °F 36% 30.31 in 10.0 mi NNW 12.7 mph 18.4 mph N/A   Clear
11:53 AM 39.9 °F 33.4 °F 12.0 °F 32% 30.29 in 10.0 mi NNW 10.4 mph - N/A   Clear
12:53 PM 41.0 °F 39.0 °F 10.9 °F 29% 30.27 in 10.0 mi Variable 3.5 mph 16.1 mph N/A   Clear
1:53 PM 42.1 °F 39.2 °F 10.9 °F 28% 30.25 in 10.0 mi West 4.6 mph - N/A   Clear
2:53 PM 44.1 °F 39.5 °F 10.0 °F 25% 30.25 in 10.0 mi WNW 8.1 mph - N/A   Clear
3:53 PM 42.8 °F 38.0 °F 10.4 °F 27% 30.21 in 10.0 mi WNW 8.1 mph - N/A   Clear
4:53 PM 39.9 °F 33.9 °F 12.0 °F 32% 30.30 in 10.0 mi NW 9.2 mph - N/A   Clear
5:53 PM 35.6 °F 29.9 °F 10.4 °F 35% 30.25 in 10.0 mi NW 6.9 mph - N/A   Clear
6:53 PM 33.1 °F 30.0 °F 14.0 °F 46% 30.40 in 10.0 mi NW 3.5 mph - N/A   Clear
7:53 PM 32.0 °F 26.4 °F 14.0 °F 48% 30.42 in 10.0 mi NNW 5.8 mph - N/A   Clear
8:53 PM 30.9 °F - 15.1 °F 52% 30.43 in 10.0 mi Calm Calm - N/A   Clear
9:53 PM 28.0 °F - 16.0 °F 61% 30.45 in 10.0 mi Calm Calm - N/A   Clear
10:53 PM 25.0 °F 18.1 °F 15.1 °F 66% 30.47 in 10.0 mi NNE 5.8 mph - N/A   Clear
11:53 PM 27.0 °F 19.5 °F 15.1 °F 61% 30.47 in 10.0 mi NNE 6.9 mph - N/A   Clear